Flag for Egypt Weather past 2 weeks in Al Jizah, Egypt

Now
99 °F

Sunny.


Feels Like: 94 °F
Forecast: 83 / 112 °F
Wind: 2 mph from Northeast

Location: Cairo Airport

Current Time: May 26, 2015 at 2:21:44 PM

Latest Report: May 26, 2015 at 2:00 PM


Visibility: 10 mi

Pressure: 29.86 "Hg

Humidity: 15%

Dew point: 43 °F

Location of Al JizahLocation

Historic Weather in Al Jizah — Graph

°F

Al Jizah temperature yesterday

Maximum temperature yesterday: 102 °F (at 4:30 PM)
Minimum temperature yesterday: 77 °F (at 5:00 AM)
Average temperature yesterday: 88 °F

Past Weeks' High & Low Weather Summary

 TemperatureHumidityPressure
High102 °F (May 24, 1:00 PM)94% (May 18, 6:00 AM)30.18 "Hg (May 18, 6:00 AM)
Low63 °F (May 15, 5:00 AM)10% (May 24, 11:00 AM)29.71 "Hg (May 11, 2:30 PM)
Average79 °F46%29.93 "Hg
* Reported May 11 1:00 PM — May 26 1:00 PM, Al Jizah, Weather by CustomWeather, © 2015

Note: Actual official high and low records may vary slightly from our data, if they occured in-between our weather recording intervals... More about our weather records

Advertising

Al Jizah weather history for previous 24 hours

 ConditionsComfort  
Time TempWeatherWind HumidityBarometerVisibility
1:00 PM
Tue, May 26
97 °FSunny.5 mph17%29.86 "Hg10 mi
12:30 PM97 °FSunny.7 mph17%29.86 "Hg10 mi
12:00 PM93 °FSunny.6 mph20%29.89 "Hg10 mi
11:30 AM93 °FSunny.5 mph21%29.89 "Hg10 mi
11:00 AM91 °FSunny.7 mph21%29.89 "Hg10 mi
10:30 AM91 °FSunny.8 mph21%29.89 "Hg10 mi
10:00 AM90 °FSunny.8 mph22%29.92 "Hg10 mi
9:30 AM88 °FSunny.8 mph24%29.92 "Hg10 mi
9:00 AM86 °FSunny.8 mph25%29.92 "Hg10 mi
8:30 AM82 °FSunny.8 mph28%29.92 "Hg10 mi
8:00 AM81 °FSunny.9 mph30%29.92 "Hg10 mi
7:30 AM79 °FSunny.10 mph34%29.89 "Hg10 mi
7:00 AM79 °FSunny.12 mph37%29.89 "Hg10 mi
6:30 AM77 °FSunny.10 mph39%29.89 "Hg10 mi
6:00 AM73 °FSunny.9 mph53%29.89 "Hg10 mi
5:30 AM73 °FSunny.8 mph53%29.89 "Hg10 mi
5:00 AM73 °FSunny.8 mph53%29.86 "Hg10 mi
4:30 AM79 °FClear.8 mph51%29.86 "Hg10 mi
4:00 AM72 °FClear.8 mph65%29.86 "Hg10 mi
3:30 AM72 °FClear.8 mph65%29.86 "Hg10 mi
3:00 AM73 °FClear.8 mph57%29.89 "Hg10 mi
2:30 AM73 °FClear.8 mph50%29.89 "Hg10 mi
2:00 AM75 °FClear.7 mph54%29.89 "Hg10 mi
1:30 AM75 °FClear.6 mph54%29.89 "Hg10 mi
1:00 AM75 °FClear.7 mph65%29.92 "Hg10 mi
12:30 AM79 °FClear.6 mph58%29.92 "Hg10 mi
12:00 AM79 °FClear.6 mph54%29.92 "Hg10 mi
11:30 PM
Mon, May 25
79 °FClear.7 mph54%29.92 "Hg10 mi
10:30 PM81 °FClear.7 mph54%29.89 "Hg10 mi
10:00 PM82 °FClear.7 mph51%29.89 "Hg10 mi
9:30 PM82 °FClear.12 mph51%29.89 "Hg10 mi
9:00 PM84 °FClear.12 mph48%29.89 "Hg10 mi
8:30 PM84 °FClear.9 mph51%29.89 "Hg10 mi
8:00 PM88 °FClear.9 mph46%29.86 "Hg10 mi
7:30 PM90 °FClear.10 mph43%29.86 "Hg10 mi
7:00 PM93 °FClear.10 mph36%29.83 "Hg10 mi
6:30 PM95 °FSunny.9 mph30%29.83 "Hg10 mi
6:00 PM97 °FSunny.10 mph28%29.80 "Hg10 mi
5:30 PM99 °FSunny.9 mph25%29.80 "Hg10 mi
5:00 PM100 °FSunny.8 mph22%29.80 "Hg10 mi
4:30 PM102 °FSunny.No wind17%29.80 "Hg10 mi
4:00 PM100 °FSunny.2 mph20%29.80 "Hg10 mi
3:30 PM100 °FSunny.1 mph22%29.83 "Hg10 mi
3:00 PM100 °FSunny.No wind22%29.83 "Hg10 mi
2:30 PM99 °FSunny.3 mph24%29.86 "Hg10 mi
2:00 PM99 °FSunny.2 mph22%29.86 "Hg10 mi
Weather by CustomWeather, © 2015

See weather overviewHow to use our weather pages